CES5028 RKPC-ZSPD

Flight info

Callsign CES5028
Flight time N/A
Altitude 32100
Route RKPC SID PANSI Y711
Aircraft A333/H-SDE2E3FGILRWXY/LB2

Departure

Time 2026-04-28 14:54
Airport Jeju International Airport (RKPC)

Arrival

Time N/A
Airport Shanghai Pudong International Airport (ZSPD)
Time Latitude Longitude Altitude Speed Heading
2026-04-28 14:52 33.51260 126.49713 82 ft 23 kts 41°
2026-04-28 14:52 33.51386 126.49818 76 ft 24 kts 337°
2026-04-28 14:53 33.51465 126.49714 73 ft 7 kts 238°
2026-04-28 14:53 33.51459 126.49704 74 ft 0 kts 237°
2026-04-28 14:53 33.51452 126.49692 74 ft 10 kts 233°
2026-04-28 14:54 33.51344 126.49492 78 ft 56 kts 239°
2026-04-28 14:54 33.51014 126.48848 76 ft 122 kts 237°
2026-04-28 14:54 33.50678 126.48178 81 ft 158 kts 239°
2026-04-28 14:54 33.49918 126.46679 941 ft 154 kts 236°
2026-04-28 14:55 33.49209 126.45580 1282 ft 182 kts 239°
2026-04-28 14:55 33.48503 126.44263 1845 ft 198 kts 244°
2026-04-28 14:55 33.47752 126.42783 2366 ft 220 kts 244°
2026-04-28 14:55 33.46919 126.41124 2957 ft 240 kts 243°
2026-04-28 14:56 33.46047 126.39380 3699 ft 254 kts 243°
2026-04-28 14:56 33.45122 126.37528 4439 ft 268 kts 242°
2026-04-28 14:56 33.44158 126.35606 5399 ft 280 kts 242°
2026-04-28 14:56 33.42998 126.33619 6303 ft 302 kts 227°
2026-04-28 14:57 33.41198 126.32198 7248 ft 325 kts 204°
2026-04-28 14:57 33.39725 126.31738 7868 ft 341 kts 190°
2026-04-28 14:57 33.37331 126.31340 8812 ft 356 kts 195°
2026-04-28 14:57 33.34037 126.30428 10125 ft 376 kts 197°
2026-04-28 14:58 33.31511 126.29648 11227 ft 360 kts 197°
2026-04-28 14:58 33.29266 126.29054 12268 ft 312 kts 199°
2026-04-28 14:58 33.27904 126.28651 13069 ft 308 kts 199°
2026-04-28 14:58 33.25837 126.28054 14297 ft 310 kts 200°
2026-04-28 14:59 33.23025 126.27238 15907 ft 313 kts 201°
2026-04-28 14:59 33.20927 126.26631 17036 ft 313 kts 202°
2026-04-28 14:59 33.18847 126.26029 18169 ft 311 kts 202°
2026-04-28 14:59 33.16773 126.25429 19315 ft 306 kts 203°
2026-04-28 15:00 33.14763 126.24847 20448 ft 299 kts 202°
2026-04-28 15:00 33.12799 126.24281 21540 ft 290 kts 202°
2026-04-28 15:00 33.10847 126.23715 22399 ft 287 kts 202°
2026-04-28 15:00 33.08937 126.23164 23276 ft 282 kts 202°
2026-04-28 15:01 33.07040 126.22620 24186 ft 275 kts 204°
2026-04-28 15:01 33.05241 126.22104 25108 ft 266 kts 204°
2026-04-28 15:01 33.03503 126.21606 26018 ft 254 kts 206°
2026-04-28 15:01 33.01812 126.21120 26691 ft 248 kts 207°
2026-04-28 15:02 32.98463 126.19876 27287 ft 257 kts 211°
2026-04-28 15:02 32.96779 126.19146 27621 ft 264 kts 211°
2026-04-28 15:02 32.95015 126.18385 27945 ft 271 kts 211°
2026-04-28 15:03 32.93208 126.17609 28259 ft 278 kts 211°
2026-04-28 15:03 32.91375 126.16821 28592 ft 284 kts 211°
2026-04-28 15:03 32.89487 126.16013 28904 ft 291 kts 211°
2026-04-28 15:03 32.87581 126.15192 29252 ft 297 kts 210°
2026-04-28 15:04 32.85618 126.14353 29594 ft 303 kts 210°
2026-04-28 15:04 32.83608 126.13491 29933 ft 309 kts 210°
2026-04-28 15:04 32.81551 126.12611 30276 ft 315 kts 211°
2026-04-28 15:04 32.79466 126.11718 30623 ft 322 kts 210°
2026-04-28 15:05 32.77335 126.10805 30953 ft 330 kts 210°
2026-04-28 15:05 32.75874 126.10181 31198 ft 335 kts 210°
2026-04-28 15:05 32.72915 126.08917 31676 ft 344 kts 209°
2026-04-28 15:05 32.70637 126.07945 32025 ft 351 kts 209°
2026-04-28 15:06 32.68326 126.06959 32245 ft 360 kts 209°
2026-04-28 15:06 32.65921 126.05928 32212 ft 377 kts 208°
2026-04-28 15:06 32.63387 126.04849 32240 ft 392 kts 208°
2026-04-28 15:06 32.60772 126.03733 32239 ft 406 kts 207°
2026-04-28 15:07 32.58064 126.02583 32211 ft 421 kts 208°
2026-04-28 15:07 32.55284 126.01401 32221 ft 433 kts 207°
2026-04-28 15:07 32.52380 126.00168 32215 ft 444 kts 207°
2026-04-28 15:08 32.46459 125.97655 32201 ft 461 kts 207°
2026-04-28 15:08 32.40358 125.95069 32219 ft 470 kts 206°
2026-04-28 15:09 32.34316 125.92522 32209 ft 448 kts 207°
2026-04-28 15:09 32.28360 125.89999 32195 ft 461 kts 206°
2026-04-28 15:10 32.22332 125.87458 32190 ft 460 kts 206°
2026-04-28 15:10 32.16290 125.84911 32200 ft 462 kts 206°
2026-04-28 15:11 32.10220 125.82359 32185 ft 461 kts 206°
2026-04-28 15:11 32.04260 125.79651 32166 ft 456 kts 215°